Location: The Saddle
(36.8333°N, 80.3417°W)
Time: 23:06:48
(UTC-04:00)

BUGSAT 1 - Visible Passes

Search period start: 28 March 2023 00:00
Search period end: 07 April 2023 00:00
Orbit: 550 x 592 km, 98.1° (Epoch: 28 March)

Date Brightness Start Highest point End Pass type
(mag) Time Alt. Az. Time Alt. Az. Time Alt. Az.
28 Mar ? 20:03:43 10° SSW 20:07:17 27° W 20:10:50 10° NW visible
29 Mar ? 20:05:51 10° SSW 20:09:21 26° W 20:12:51 10° NW visible
30 Mar ? 20:07:59 10° SSW 20:11:25 25° W 20:14:49 10° NW visible
31 Mar ? 20:10:06 10° SSW 20:13:27 24° W 20:16:48 10° NW visible
01 Apr ? 20:12:12 10° SSW 20:15:29 23° W 20:18:45 10° NW visible
02 Apr ? 20:14:18 10° SSW 20:17:29 21° W 20:20:40 10° NW visible
03 Apr ? 20:16:23 10° SW 20:19:29 20° W 20:22:35 10° NW visible
04 Apr ? 20:18:28 10° SW 20:21:28 20° W 20:24:28 10° NW visible
05 Apr ? 20:20:31 10° SW 20:23:26 19° W 20:26:20 10° NW visible
06 Apr ? 20:22:35 10° SW 20:25:23 18° W 20:28:10 10° NW visible
